When you browse on this site, cookies collect data to enhance your experience and personalize the content and advertising you see.
Visit our Privacy Policy to learn more. By continuing to use the site, you agree to this use of cookies and data.
  • In Romania
  • List of Countries
  • For 7 days
  • Water Temperature
  • Weather Map
  • Weather Widgets
  • user-avatar
    Login

    Hourly Weather Piaseczno

    Today, 21 August, Wednesday

    Time Temperature Precipitation Wind Pressure Humidity
    00:00 +21°C° 0.2 mm 4 mps 755 mmHg 71%
    01:00 +20°C° 0.2 mm 5 mps 755 mmHg 75%
    02:00 +20°C° 0.8 mm 4 mps 754 mmHg 80%
    03:00 +20°C° 0.8 mm 3 mps 754 mmHg 85%
    04:00 +19°C° 0.8 mm 2 mps 754 mmHg 90%
    05:00 +19°C° 0.8 mm 3 mps 754 mmHg 91%
    06:00 +19°C° 0.8 mm 4 mps 754 mmHg 91%
    07:00 +19°C° 0.8 mm 5 mps 755 mmHg 92%
    08:00 +17°C° 0 mm 5 mps 755 mmHg 88%
    09:00 +17°C° 0 mm 6 mps 756 mmHg 85%
    10:00 +16°C° 0 mm 6 mps 757 mmHg 82%
    11:00 +17°C° 0 mm 6 mps 757 mmHg 76%
    12:00 +19°C° 0 mm 6 mps 758 mmHg 70%
    13:00 +20°C° 0 mm 6 mps 759 mmHg 64%
    14:00 +20°C° 0 mm 6 mps 759 mmHg 64%
    15:00 +20°C° 0 mm 5 mps 759 mmHg 63%
    16:00 +20°C° 0 mm 5 mps 759 mmHg 63%
    17:00 +19°C° 0 mm 4 mps 759 mmHg 67%
    18:00 +18°C° 0 mm 3 mps 760 mmHg 71%
    19:00 +17°C° 0 mm 2 mps 760 mmHg 75%
    20:00 +16°C° 0 mm 2 mps 760 mmHg 78%
    21:00 +16°C° 0 mm 1 mps 760 mmHg 81%
    22:00 +15°C° 0 mm 1 mps 761 mmHg 84%
    23:00 +15°C° 0 mm 1 mps 761 mmHg 85%

    Tomorrow, 22 August, Thursday

    Time Temperature Precipitation Wind Pressure Humidity
    00:00 +14°C° 0 mm 1 mps 761 mmHg 85%
    01:00 +14°C° 0 mm 1 mps 761 mmHg 86%
    02:00 +14°C° 0 mm 1 mps 761 mmHg 86%
    03:00 +14°C° 0 mm 1 mps 761 mmHg 87%
    04:00 +13°C° 0 mm 1 mps 761 mmHg 87%
    05:00 +14°C° 0 mm 1 mps 761 mmHg 83%
    06:00 +16°C° 0 mm 1 mps 762 mmHg 79%
    07:00 +18°C° 0 mm 1 mps 762 mmHg 75%
    08:00 +19°C° 0 mm 1 mps 762 mmHg 69%
    09:00 +20°C° 0 mm 1 mps 762 mmHg 64%
    10:00 +22°C° 0 mm 1 mps 762 mmHg 59%
    11:00 +21°C° 0 mm 2 mps 762 mmHg 55%
    12:00 +23°C° 0 mm 2 mps 761 mmHg 52%
    13:00 +24°C° 0 mm 2 mps 761 mmHg 49%
    14:00 +24°C° 0 mm 2 mps 761 mmHg 49%
    15:00 +24°C° 0 mm 2 mps 761 mmHg 49%
    16:00 +24°C° 0 mm 2 mps 760 mmHg 49%
    17:00 +23°C° 0 mm 2 mps 760 mmHg 54%
    18:00 +20°C° 0 mm 2 mps 760 mmHg 59%
    19:00 +19°C° 0 mm 2 mps 760 mmHg 64%
    20:00 +18°C° 0 mm 2 mps 761 mmHg 66%
    21:00 +17°C° 0 mm 2 mps 761 mmHg 68%
    22:00 +16°C° 0 mm 2 mps 761 mmHg 70%
    23:00 +16°C° 0 mm 2 mps 761 mmHg 71%

    Day after tomorrow, 23 August, Friday

    Time Temperature Precipitation Wind Pressure Humidity
    00:00 +16°C° 0 mm 2 mps 761 mmHg 72%
    01:00 +15°C° 0 mm 2 mps 761 mmHg 73%
    02:00 +15°C° 0 mm 2 mps 761 mmHg 74%
    03:00 +14°C° 0 mm 2 mps 761 mmHg 76%
    04:00 +14°C° 0 mm 2 mps 761 mmHg 78%
    05:00 +15°C° 0 mm 2 mps 761 mmHg 74%
    06:00 +17°C° 0 mm 2 mps 761 mmHg 71%
    07:00 +18°C° 0 mm 2 mps 761 mmHg 68%
    08:00 +20°C° 0 mm 2 mps 761 mmHg 61%
    09:00 +21°C° 0 mm 3 mps 761 mmHg 54%
    10:00 +24°C° 0 mm 3 mps 761 mmHg 48%
    11:00 +25°C° 0 mm 3 mps 761 mmHg 44%
    12:00 +26°C° 0 mm 3 mps 761 mmHg 41%
    13:00 +26°C° 0 mm 3 mps 760 mmHg 38%
    14:00 +26°C° 0 mm 3 mps 760 mmHg 38%
    15:00 +26°C° 0 mm 3 mps 760 mmHg 39%
    16:00 +26°C° 0 mm 3 mps 760 mmHg 40%
    17:00 +24°C° 0 mm 3 mps 760 mmHg 45%
    18:00 +21°C° 0 mm 3 mps 760 mmHg 50%
    19:00 +20°C° 0 mm 3 mps 760 mmHg 56%
    20:00 +19°C° 0 mm 3 mps 760 mmHg 58%
    21:00 +18°C° 0 mm 3 mps 760 mmHg 61%
    22:00 +17°C° 0 mm 3 mps 760 mmHg 63%
    23:00 +17°C° 0 mm 3 mps 760 mmHg 67%

    24 August, Saturday

    Time Temperature Precipitation Wind Pressure Humidity
    00:00 +16°C° 0 mm 2 mps 760 mmHg 70%
    01:00 +16°C° 0 mm 2 mps 760 mmHg 73%
    02:00 +15°C° 0 mm 2 mps 759 mmHg 74%
    03:00 +15°C° 0 mm 2 mps 759 mmHg 75%
    04:00 +15°C° 0 mm 2 mps 759 mmHg 76%
    05:00 +16°C° 0 mm 3 mps 759 mmHg 73%
    06:00 +17°C° 0 mm 3 mps 759 mmHg 69%
    07:00 +18°C° 0 mm 3 mps 759 mmHg 66%
    08:00 +20°C° 0 mm 3 mps 759 mmHg 60%
    09:00 +22°C° 0 mm 4 mps 759 mmHg 54%
    10:00 +25°C° 0 mm 4 mps 759 mmHg 48%
    11:00 +26°C° 0 mm 4 mps 759 mmHg 46%
    12:00 +27°C° 0 mm 4 mps 758 mmHg 43%
    13:00 +27°C° 0 mm 4 mps 758 mmHg 40%
    14:00 +27°C° 0 mm 4 mps 758 mmHg 41%
    15:00 +27°C° 0 mm 4 mps 757 mmHg 42%
    16:00 +27°C° 0 mm 4 mps 757 mmHg 44%
    17:00 +25°C° 0 mm 3 mps 757 mmHg 50%
    18:00 +24°C° 0 mm 3 mps 757 mmHg 56%
    19:00 +21°C° 0 mm 3 mps 757 mmHg 62%
    20:00 +20°C° 0 mm 3 mps 757 mmHg 64%
    21:00 +19°C° 0 mm 3 mps 757 mmHg 66%
    22:00 +19°C° 0 mm 3 mps 757 mmHg 68%
    23:00 +18°C° 0 mm 3 mps 757 mmHg 69%

    25 August, Sunday

    Time Temperature Precipitation Wind Pressure Humidity
    00:00 +18°C° 0 mm 3 mps 757 mmHg 69%
    01:00 +17°C° 0 mm 3 mps 757 mmHg 70%
    02:00 +17°C° 0 mm 3 mps 757 mmHg 71%
    03:00 +17°C° 0 mm 3 mps 757 mmHg 73%
    04:00 +16°C° 0 mm 3 mps 756 mmHg 74%
    05:00 +17°C° 0 mm 3 mps 756 mmHg 71%
    06:00 +18°C° 0 mm 3 mps 757 mmHg 68%
    07:00 +19°C° 0 mm 4 mps 757 mmHg 66%
    08:00 +21°C° 0 mm 4 mps 757 mmHg 61%
    09:00 +23°C° 0 mm 4 mps 757 mmHg 57%
    10:00 +26°C° 0 mm 4 mps 757 mmHg 52%
    11:00 +27°C° 0 mm 5 mps 757 mmHg 50%
    12:00 +28°C° 0 mm 5 mps 757 mmHg 47%
    13:00 +28°C° 0 mm 5 mps 756 mmHg 44%
    14:00 +28°C° 0 mm 5 mps 756 mmHg 45%
    15:00 +28°C° 0 mm 5 mps 756 mmHg 46%
    16:00 +28°C° 0 mm 4 mps 756 mmHg 47%
    17:00 +26°C° 0 mm 4 mps 756 mmHg 52%
    18:00 +25°C° 0 mm 4 mps 756 mmHg 56%
    19:00 +22°C° 0 mm 4 mps 756 mmHg 61%
    20:00 +21°C° 0 mm 4 mps 756 mmHg 63%
    21:00 +21°C° 0 mm 4 mps 756 mmHg 65%
    22:00 +20°C° 0 mm 4 mps 756 mmHg 66%
    23:00 +20°C° 0 mm 4 mps 756 mmHg 68%

    26 August, Monday

    Time Temperature Precipitation Wind Pressure Humidity
    00:00 +19°C° 0 mm 4 mps 756 mmHg 69%
    01:00 +19°C° 0 mm 4 mps 756 mmHg 71%
    02:00 +18°C° 0 mm 3 mps 756 mmHg 72%
    03:00 +18°C° 0 mm 3 mps 756 mmHg 74%
    04:00 +18°C° 0 mm 3 mps 756 mmHg 75%
    05:00 +19°C° 0 mm 3 mps 756 mmHg 75%
    06:00 +20°C° 0 mm 4 mps 756 mmHg 74%
    07:00 +21°C° 0 mm 4 mps 756 mmHg 73%
    08:00 +22°C° 0 mm 4 mps 756 mmHg 67%
    09:00 +25°C° 0 mm 4 mps 756 mmHg 62%
    10:00 +27°C° 0 mm 4 mps 756 mmHg 56%
    11:00 +28°C° 0 mm 5 mps 756 mmHg 53%
    12:00 +29°C° 0 mm 5 mps 756 mmHg 49%
    13:00 +30°C° 0 mm 5 mps 755 mmHg 46%
    14:00 +30°C° 0 mm 5 mps 755 mmHg 47%
    15:00 +30°C° 0 mm 4 mps 755 mmHg 48%
    16:00 +30°C° 0 mm 4 mps 755 mmHg 50%
    17:00 +28°C° 0 mm 4 mps 755 mmHg 56%
    18:00 +27°C° 0 mm 3 mps 755 mmHg 62%
    19:00 +25°C° 0 mm 3 mps 754 mmHg 69%
    20:00 +24°C° 0.1 mm 3 mps 755 mmHg 72%
    21:00 +22°C° 0.1 mm 3 mps 755 mmHg 76%
    22:00 +22°C° 0.1 mm 3 mps 755 mmHg 79%
    23:00 +21°C° 0 mm 2 mps 755 mmHg 82%
    Show more